Change the Weather History Date:

Sunday, February 5, 2012

  Actual Average Record
Temperature  
Mean Temperature 32 °F -  
Max Temperature 46 °F 35 °F 54 °F (2007)
Min Temperature 17 °F 18 °F 0 °F (2014)
Degree Days  
Heating Degree Days 32    
Moisture  
Dew Point 19 °F    
Average Humidity 64    
Maximum Humidity 82    
Minimum Humidity 29    
Precipitation  
Precipitation 0.00 in - - ()
Sea Level Pressure  
Sea Level Pressure 30.30 in    
Wind  
Wind Speed 0 mph (North)    
Max Wind Speed 0 mph    
Max Gust Speed -    
Visibility 10 miles    
Events      
Averages and records for this station are not official NWS values.
T = Trace of Precipitation, MM = Missing Value Source: NWS Daily Summary

Daily Weather History Graph

Daily Weather History Graph

Search for Another Location

Airport or City:

Trip Planner

Search our weather history database for the weather conditions in past years. The results will help you decide how hot, cold, wet, or windy it might be!

Date:

Astronomy

Feb. 05, 2012 Rise Set
Actual Time 7:10 AM PST 5:05 PM PST
Civil Twilight 6:39 AM PST 5:36 PM PST
Nautical Twilight 6:03 AM PST 6:12 PM PST
Astronomical Twilight 5:29 AM PST 6:46 PM PST
Moon 3:06 PM PST (2/5) 5:28 AM PST (2/5)
Length of Visible Light 10h 57m
Length of Day
9h 55m
Waxing Gibbous, 95% of the Moon is Illuminated
Feb 5
Waxing Gibbous
Feb 7
Full
Feb 14
Last Quarter
Feb 21
New
Feb 29
First Quarter

Hourly Weather History & Observations

Time (PST) Temp. Dew Point Humidity Pressure Visibility Wind Dir Wind Speed Gust Speed Precip Events Conditions
12:56 AM 26.1 °F 18.0 °F 71% 30.33 in 10.0 mi Calm Calm - N/A   Clear
1:56 AM 28.9 °F 19.0 °F 67% 30.33 in 10.0 mi Calm Calm - N/A   Clear
2:56 AM 30.0 °F 19.9 °F 66% 30.32 in 10.0 mi Calm Calm - N/A   Clear
3:56 AM 28.9 °F 19.0 °F 67% 30.32 in 10.0 mi Calm Calm - N/A   Clear
4:56 AM 28.0 °F 19.0 °F 69% 30.34 in 10.0 mi Calm Calm - N/A   Clear
5:56 AM 28.9 °F 19.0 °F 67% 30.32 in 10.0 mi Calm Calm - N/A   Clear
6:56 AM 25.0 °F 18.0 °F 75% 30.35 in 10.0 mi Calm Calm - N/A   Clear
7:56 AM 19.0 °F 14.0 °F 81% 30.36 in 10.0 mi Calm Calm - N/A   Clear
8:56 AM 30.0 °F 19.9 °F 66% 30.35 in 10.0 mi Calm Calm - N/A   Clear
9:56 AM 36.0 °F 21.0 °F 55% 30.33 in 10.0 mi Calm Calm - N/A   Clear
10:56 AM 42.8 °F 19.4 °F 39% 30.25 in 10.0 mi Calm Calm - N/A   Clear
11:17 AM - - N/A% - - North - - N/A   Unknown
11:56 AM 44.1 °F 19.9 °F 38% 30.30 in 10.0 mi Calm Calm - N/A   Clear
12:56 PM 45.0 °F 19.0 °F 36% 30.27 in 10.0 mi Calm Calm - N/A   Clear
1:56 PM 46.9 °F 16.0 °F 29% 30.25 in 10.0 mi Calm Calm - N/A   Clear
2:56 PM 43.0 °F 27.0 °F 53% 30.26 in 10.0 mi Calm Calm - N/A   Clear
3:16 PM - - N/A% - - North - - N/A   Unknown
3:56 PM 41.0 °F 25.0 °F 53% 30.26 in 10.0 mi Calm Calm - N/A   Clear
4:56 PM 34.0 °F 26.1 °F 73% 30.27 in 10.0 mi Calm Calm - N/A   Clear
5:56 PM 28.0 °F 21.9 °F 78% 30.29 in 10.0 mi Calm Calm - N/A   Clear
6:56 PM 26.1 °F 19.9 °F 78% 30.29 in 10.0 mi Calm Calm - N/A   Clear
7:56 PM 25.0 °F 19.0 °F 78% 30.31 in 10.0 mi Calm Calm - N/A   Clear
8:56 PM 21.9 °F 17.1 °F 82% 30.28 in 10.0 mi Calm Calm - N/A   Clear
9:56 PM - - N/A% - - North - - N/A   Unknown
10:15 PM - - N/A% - - North - - N/A   Unknown
10:56 PM 19.0 °F 14.0 °F 81% 30.25 in 10.0 mi Calm Calm - N/A   Clear
11:56 PM 17.1 °F 12.0 °F 81% 30.23 in 10.0 mi Calm Calm - N/A   Clear